NCA2655 RJFF-RJAA

Flight info

Callsign NCA2655
Flight time N/A
Altitude 33000
Route SABAR Y81 RUTAS
Aircraft B77L/H-SDE1E2E3FGHIJ2J3J4J5M1RWXY/LB1D1

Departure

Time N/A
Airport Fukuoka Airport (RJFF)

Arrival

Time 2026-05-03 20:41
Airport Narita International Airport (RJAA)
Time Latitude Longitude Altitude Speed Heading
2026-05-03 20:15 33.94749 139.31211 34732 ft 578 kts 59°
2026-05-03 20:15 33.98877 139.39522 34728 ft 578 kts 59°
2026-05-03 20:16 34.03003 139.47827 34729 ft 577 kts 59°
2026-05-03 20:16 34.07175 139.56091 34738 ft 576 kts 55°
2026-05-03 20:17 34.12034 139.63749 34722 ft 574 kts 49°
2026-05-03 20:17 34.17098 139.71197 34718 ft 574 kts 49°
2026-05-03 20:18 34.22102 139.78681 34723 ft 573 kts 50°
2026-05-03 20:18 34.27080 139.86228 34709 ft 573 kts 50°
2026-05-03 20:19 34.32045 139.93769 34717 ft 573 kts 50°
2026-05-03 20:19 34.37004 140.01307 34703 ft 572 kts 50°
2026-05-03 20:20 34.41947 140.08853 34705 ft 572 kts 50°
2026-05-03 20:20 34.50648 140.23818 34691 ft 575 kts 57°
2026-05-03 20:21 34.67473 140.56780 34746 ft 575 kts 57°
2026-05-03 20:21 34.79158 140.68483 34681 ft 543 kts
2026-05-03 20:21 34.92561 140.70008 34547 ft 520 kts 359°
2026-05-03 20:21 34.99672 140.70924 32691 ft 513 kts 359°
2026-05-03 20:22 35.06815 140.71978 29857 ft 527 kts
2026-05-03 20:22 35.13293 140.76257 27966 ft 524 kts 33°
2026-05-03 20:22 35.19014 140.81288 26893 ft 492 kts 31°
2026-05-03 20:22 35.24635 140.85966 25958 ft 492 kts 30°
2026-05-03 20:23 35.30400 140.90722 24974 ft 507 kts 30°
2026-05-03 20:23 35.36263 140.95607 23980 ft 510 kts 30°
2026-05-03 20:23 35.42098 141.00494 22842 ft 505 kts 30°
2026-05-03 20:23 35.47870 141.05123 21584 ft 481 kts 19°
2026-05-03 20:24 35.51228 141.06354 21016 ft 461 kts
2026-05-03 20:24 35.57322 141.05894 20018 ft 431 kts 341°
2026-05-03 20:24 35.63202 141.04619 19069 ft 427 kts 342°
2026-05-03 20:24 35.69045 141.03448 18107 ft 424 kts 342°
2026-05-03 20:25 35.74686 141.01926 16997 ft 395 kts 323°
2026-05-03 20:25 35.77454 140.99318 16386 ft 368 kts 303°
2026-05-03 20:25 35.80170 140.94238 15408 ft 350 kts 291°
2026-05-03 20:25 35.83303 140.87370 14229 ft 343 kts 291°
2026-05-03 20:26 35.85640 140.82291 13340 ft 338 kts 291°
2026-05-03 20:26 35.87956 140.77296 12384 ft 333 kts 291°
2026-05-03 20:26 35.89251 140.74505 11874 ft 329 kts 291°
2026-05-03 20:26 35.90017 140.72856 11578 ft 327 kts 291°
2026-05-03 20:27 35.91502 140.69655 11015 ft 322 kts 290°
2026-05-03 20:27 35.92252 140.68037 10736 ft 320 kts 290°
2026-05-03 20:27 35.93328 140.65721 10565 ft 309 kts 290°
2026-05-03 20:27 35.94391 140.63431 10397 ft 298 kts 290°
2026-05-03 20:28 35.95388 140.61281 10261 ft 287 kts 289°
2026-05-03 20:28 35.96372 140.59158 10127 ft 275 kts 289°
2026-05-03 20:28 35.97288 140.57183 10000 ft 263 kts 289°
2026-05-03 20:28 35.98178 140.55269 9896 ft 250 kts 288°
2026-05-03 20:29 35.99109 140.53484 9794 ft 247 kts 294°
2026-05-03 20:29 36.00136 140.51790 9688 ft 247 kts 295°
2026-05-03 20:29 36.01188 140.50078 9608 ft 253 kts 295°
2026-05-03 20:29 36.02269 140.48310 9325 ft 261 kts 295°
2026-05-03 20:30 36.03367 140.46518 9004 ft 260 kts 295°
2026-05-03 20:30 36.04449 140.44749 8695 ft 256 kts 294°
2026-05-03 20:30 36.05513 140.43005 8383 ft 252 kts 294°
2026-05-03 20:30 36.06550 140.41295 8082 ft 247 kts 294°
2026-05-03 20:31 36.08347 140.38320 7591 ft 243 kts 293°
2026-05-03 20:31 36.10354 140.34987 7040 ft 242 kts 294°
2026-05-03 20:31 36.11944 140.31539 6536 ft 214 kts 269°
2026-05-03 20:31 36.12017 140.27992 6269 ft 205 kts 261°
2026-05-03 20:32 36.11971 140.24416 5994 ft 213 kts 261°
2026-05-03 20:32 36.11660 140.20790 5636 ft 209 kts 240°
2026-05-03 20:32 36.09627 140.18276 5367 ft 213 kts 214°
2026-05-03 20:32 36.06660 140.17687 5032 ft 223 kts 188°
2026-05-03 20:33 36.05012 140.17737 4860 ft 217 kts 189°
2026-05-03 20:33 36.03544 140.18025 4671 ft 218 kts 169°
2026-05-03 20:33 36.02215 140.18903 4493 ft 212 kts 167°
2026-05-03 20:33 36.00950 140.19773 4366 ft 208 kts 168°
2026-05-03 20:34 35.99702 140.20654 4221 ft 205 kts 168°
2026-05-03 20:34 35.98469 140.21542 4088 ft 207 kts 167°
2026-05-03 20:34 35.97236 140.22436 3937 ft 203 kts 167°
2026-05-03 20:34 35.96032 140.23319 3761 ft 198 kts 166°
2026-05-03 20:35 35.94889 140.24162 3716 ft 186 kts 168°
2026-05-03 20:35 35.93799 140.24950 3672 ft 175 kts 168°
2026-05-03 20:35 35.92745 140.25706 3532 ft 180 kts 169°
2026-05-03 20:35 35.91702 140.26476 3321 ft 170 kts 168°
2026-05-03 20:36 35.90693 140.27209 3083 ft 167 kts 169°
2026-05-03 20:36 35.89714 140.27924 2869 ft 155 kts 169°
2026-05-03 20:36 35.88858 140.28556 2658 ft 132 kts 171°
2026-05-03 20:36 35.88129 140.29081 2503 ft 118 kts 174°
2026-05-03 20:37 35.87391 140.29607 2378 ft 125 kts 171°
2026-05-03 20:37 35.86671 140.30142 2238 ft 117 kts 173°
2026-05-03 20:37 35.86012 140.30625 2067 ft 106 kts 174°
2026-05-03 20:37 35.85348 140.31093 1960 ft 112 kts 172°
2026-05-03 20:38 35.84669 140.31580 1816 ft 116 kts 171°
2026-05-03 20:38 35.83966 140.32089 1668 ft 118 kts 169°
2026-05-03 20:38 35.83240 140.32615 1503 ft 121 kts 167°
2026-05-03 20:38 35.82526 140.33139 1327 ft 121 kts 165°
2026-05-03 20:39 35.81794 140.33672 1197 ft 122 kts 166°
2026-05-03 20:39 35.81047 140.34232 1031 ft 132 kts 159°
2026-05-03 20:39 35.80278 140.34820 862 ft 128 kts 163°
2026-05-03 20:39 35.79526 140.35326 658 ft 121 kts 156°
2026-05-03 20:40 35.78752 140.35871 522 ft 129 kts 155°
2026-05-03 20:40 35.77958 140.36460 254 ft 132 kts 153°
2026-05-03 20:40 35.77181 140.37020 171 ft 125 kts 154°
2026-05-03 20:40 35.76512 140.37500 149 ft 100 kts 149°
2026-05-03 20:41 35.75966 140.37891 150 ft 81 kts 148°
2026-05-03 20:41 35.75676 140.38103 151 ft 34 kts 147°
2026-05-03 20:41 35.75521 140.38299 150 ft 30 kts 126°
2026-05-03 20:41 35.75470 140.38410 150 ft 9 kts 107°
2026-05-03 20:42 35.75498 140.38468 162 ft 9 kts 20°
2026-05-03 20:42 35.75574 140.38433 149 ft 17 kts 329°
2026-05-03 20:42 35.75674 140.38362 149 ft 17 kts 330°
2026-05-03 20:42 35.75773 140.38289 149 ft 17 kts 328°
2026-05-03 20:43 35.75873 140.38218 152 ft 17 kts 329°
2026-05-03 20:43 35.75972 140.38146 149 ft 17 kts 330°
2026-05-03 20:43 35.76073 140.38076 149 ft 17 kts 330°
2026-05-03 20:43 35.76171 140.38002 148 ft 17 kts 329°
2026-05-03 20:44 35.76271 140.37931 148 ft 17 kts 330°
2026-05-03 20:44 35.76375 140.37876 148 ft 17 kts
2026-05-03 20:44 35.76477 140.37910 148 ft 17 kts 334°
2026-05-03 20:44 35.76581 140.37850 148 ft 17 kts
2026-05-03 20:45 35.76654 140.37957 148 ft 17 kts 57°
2026-05-03 20:45 35.76755 140.37966 148 ft 17 kts 328°
2026-05-03 20:45 35.76856 140.37893 148 ft 17 kts 331°
2026-05-03 20:45 35.76912 140.37927 148 ft 7 kts 58°
2026-05-03 20:46 35.76932 140.37968 148 ft 2 kts 59°
2026-05-03 20:46 35.76936 140.37977 148 ft 1 kts 59°
2026-05-03 20:46 35.76937 140.37978 148 ft 0 kts 59°